Overview Statistics Trail Chart Weather Telemetry Raw packets
 

This is the latest recevied weather packets stored in our database for station/object IR9AK-10. If no packets are shown the sender has not sent any weather packets the latest 10 day(s).

<< 33 34 35 36 37 38 39 >>
Time Temp. Humidity Pressure Rain* Wind** Luminosity Snow
1788083323 44.44° C 27% 1058.7 hPa - - - -
1788082725 44.44° C 26% 1058.6 hPa - - - -
1788082127 44.44° C 25% 1058.6 hPa - - - -
1788081527 43.89° C 26% 1058.6 hPa - - - -
1788080928 43.89° C 25% 1058.6 hPa - - - -
1788080328 43.89° C 26% 1058.6 hPa - - - -
1788079730 43.33° C 25% 1058.6 hPa - - - -
1788079131 42.78° C 24% 1058.7 hPa - - - -
1788078533 43.33° C 10% - - - - -
1788077933 42.78° C 24% 1058.6 hPa - - - -
1788077334 42.78° C 24% 1058.5 hPa - - - -
1788076735 43.33° C 22% 1058.3 hPa - - - -
1788076137 42.78° C 19% 1058.3 hPa - - - -
1788075538 42.78° C 22% 1058.1 hPa - - - -
1788074939 42.22° C 21% 1058 hPa - - - -
1788074339 42.22° C 20% 1058 hPa - - - -
1788073740 42.22° C 20% 1058 hPa - - - -
1788073142 41.67° C 19% 1058 hPa - - - -
1788072543 41.67° C 20% 1058 hPa - - - -
1788071945 41.67° C 20% 1058.1 hPa - - - -
1788071345 41.67° C 20% 1058.2 hPa - - - -
1788070746 41.67° C 21% 1058.3 hPa - - - -
1788070147 41.11° C 21% 1058.4 hPa - - - -
1788069549 41.11° C 19% 1058.5 hPa - - - -
1788068950 40.56° C 19% 1058.5 hPa - - - -

* Rain since midnight (hover to see other rain measurements)
** Current wind speed in m/s (hover to see current wind gust speed)